Regional Weather Roundup
Issued by NWS

Home | Current Version | Previous Version | Text Only | Print | Product List | Glossary Off
Versions: 1 2 3 4 5 6 7 8 9 10 11 12 13 14 15 16 17 18 19 20 21 22 23 24 25 26 27 28 29 30 31 32 33 34 35 36 37 38 39 40 41 42 43 44 45 46 47 48 49 50

000
ASUS43 KOAX 211902
RWRNE

WEATHER ROUNDUP FOR NEBRASKA
NATIONAL WEATHER SERVICE OMAHA NE
100 PM CST SAT JAN 21 2017

NOTES: SATELLITE DATA IS BEING USED TO AUGMENT CLOUD COVER ABOVE
       12000 FEET.
       "FAIR" INDICATES FEW OR NO CLOUDS BELOW 12,000 FEET WITH NO
       SIGNIFICANT WEATHER AND/OR OBSTRUCTIONS TO VISIBILITY.

  * THESE STATIONS DO NOT REPORT WEATHER SUCH AS RAIN...SNOW OR FOG.

NEZ001>004-019>022-054>056-212000-
NEBRASKA PANHANDLE

CITY           SKY/WX    TMP DP  RH WIND       PRES   REMARKS
SCOTTSBLUFF    SUNNY     38  27  64 E5        29.41F WCI  34
ALLIANCE       SUNNY     43  29  57 SW6       29.40F
CHADRON        SUNNY     35  26  69 W7        29.42F WCI  29
KIMBALL        SUNNY     43  29  57 S12       29.39F
SIDNEY         SUNNY     42  25  50 S10       29.41F
$$

NEZ057>060-069>072-079>082-212000-
SOUTHWEST NEBRASKA

CITY           SKY/WX    TMP DP  RH WIND       PRES   REMARKS
NORTH PLATTE   SUNNY     45  32  60 W7        29.42F
IMPERIAL       SUNNY     44  27  51 CALM      29.42F
LEXINGTON      SUNNY     45  36  70 NW6       29.42F
MCCOOK         SUNNY     46  34  62 VRB3      29.43F
OGALLALA       SUNNY     44  31  60 W6        29.42F
$$

NEZ005>010-023>029-035>040-094-212000-
NORTH CENTRAL NEBRASKA

CITY           SKY/WX    TMP DP  RH WIND       PRES   REMARKS
VALENTINE      CLOUDY    44  31  60 W10       29.40S
AINSWORTH      PTSUNNY   46  32  58 W8        29.39F
BROKEN BOW     SUNNY     46  37  71 SW3       29.40F
O`NEILL        SUNNY     47  33  58 NW10      29.39F
ORD            SUNNY     48  34  58 CALM      29.39F
THEDFORD       SUNNY     46  35  63 W6        29.41F
$$

NEZ041-046>049-061>064-073>077-083>087-212000-
SOUTH CENTRAL NEBRASKA

CITY           SKY/WX    TMP DP  RH WIND       PRES   REMARKS
GRAND ISLAND   SUNNY     50  37  61 CALM      29.43F
AURORA         SUNNY     49  38  66 CALM      29.43F
HASTINGS       SUNNY     48  39  71 VRB3      29.45S
HEBRON         SUNNY     48  42  77 S6        29.46F
HOLDREGE       SUNNY     46  38  74 SW5       29.44R
KEARNEY *      SUNNY     50  -2  11 CALM      29.43S
YORK           SUNNY     48  39  71 W5        29.44F
$$

NEZ011>018-030>034-042>045-212000-
NORTHEAST NEBRASKA

CITY           SKY/WX    TMP DP  RH WIND       PRES   REMARKS
NORFOLK        CLOUDY    46  34  62 W12       29.39S
ALBION         SUNNY    N/A N/A N/A W6        29.41F
BLAIR          SUNNY     45  44  98 W9        29.43F
FREMONT        SUNNY     47  40  76 W7        29.44F
TEKAMAH        MOSUNNY   47  38  71 W12       29.43R
WAYNE          CLOUDY    44  37  77 W12G18    29.40S
$$

NEZ050>053-065>068-078-088>093-212000-
SOUTHEAST NEBRASKA

CITY           SKY/WX    TMP DP  RH WIND       PRES   REMARKS
LINCOLN        SUNNY     50  40  68 SW10      29.46F
OMAHA EPPLEY   PTSUNNY   49  38  65 SW5       29.43F
BEATRICE       SUNNY     50  42  73 SW10      29.46F
FALLS CITY     MOSUNNY   51  41  68 SW9       29.47F
NEBRASKA CITY  SUNNY     45  45 100 SW10      29.46F
PLATTSMOUTH    MOSUNNY   48  40  73 S9        29.45F
$$

NEZ044-045-051>053-067-212000-
OMAHA AREA

CITY           SKY/WX    TMP DP  RH WIND       PRES   REMARKS
OMAHA EPPLEY   PTSUNNY   49  38  65 SW5       29.43F
BLAIR          SUNNY     45  44  98 W9        29.43F
FREMONT        SUNNY     47  40  76 W7        29.44F
MILLARD        SUNNY     50  40  69 W6        29.44F
OFFUTT AFB     MOSUNNY   49  44  82 SW9       29.44F
PLATTSMOUTH    MOSUNNY   48  40  73 S9        29.45F
WAHOO          FAIR      48  39  71 W7        29.43F
$$




USA.gov is the U.S. government's official web portal to all federal, state and local government web resources and services.